Wetbulb
45.44 45.39 45.15 45.53 45.76 45.93 46.27 46.30 46.37 46.21 45.99 45.71 45.60 45.45 45.39 45.89 46.72 42.44 39.63 42.76 38.71 30.71 33.27 36.33 36.60 31.25 30.70 29.40 21.91 28.10 25.30 25.88 21.15 16.05 17.86 16.78 19.58 22.10 21.34 24.01 23.06 21.73 16.16 13.24 20.21 12.43 10.02 33.62 32.96 26.52 31.59 35.19 35.65 36.19
44.74 44.75 44.77 44.77 44.91 45.07 45.25 45.30 45.53 45.67 45.74 45.72 45.44 44.98 44.91 45.06 45.57 45.34 36.42 41.51 42.47 33.93 32.46 37.89 37.76 37.90 36.63 35.51 29.97 27.38 25.58 26.25 23.95 18.72 19.52 21.80 19.99 19.12 21.84 17.71 27.54 20.41 26.76 25.09 25.37 21.00 30.34 33.39 32.94 35.53 37.00 35.65 35.83 35.49
44.26 44.25 44.28 44.26 44.25 44.41 44.44 44.58 44.72 44.81 44.92 45.04 45.15 44.55 44.46 44.22 44.12 43.73 38.73 38.06 37.85 30.91 31.11 31.69 31.60 37.41 40.27 37.86 38.17 26.59 30.01 32.78 29.40 30.67 20.79 19.84 18.04 20.61 14.41 19.39 22.11 26.00 31.36 26.43 26.32 30.28 31.39 32.27 35.14 37.91 37.32 36.06 37.43 38.51
43.81 43.62 43.51 43.52 43.59 43.56 43.68 43.82 43.77 43.86 44.11 44.21 44.51 44.47 44.10 43.88 43.65 43.69 37.93 38.47 36.72 31.30 22.25 29.13 40.77 36.29 40.69 39.14 37.40 36.49 34.33 34.96 34.06 31.64 26.39 23.57 22.06 28.39 20.94 23.66 22.58 25.49 28.24 25.93 26.12 29.28 32.24 33.41 34.48 35.88 36.82 37.83 37.83 38.99
43.21 43.09 43.19 43.24 43.22 43.26 43.42 43.37 43.12 43.21 43.05 42.83 42.81 43.20 43.29 43.29 43.15 41.73 39.06 38.63 39.60 33.27 26.92 25.31 34.71 37.58 38.70 38.12 36.79 36.10 34.62 31.92 28.88 23.78 25.58 22.41 25.86 24.55 24.87 25.36 23.77 27.77 25.58 21.78 22.17 30.38 30.59 31.38 33.92 37.01 35.32 35.06 36.35 36.73
43.02 42.91 42.96 42.79 42.98 43.07 43.12 43.02 43.06 43.00 42.96 42.82 42.50 42.77 43.00 43.02 43.09 35.68 30.03 38.34 38.93 35.96 26.98 19.28 32.31 33.20 35.51 35.91 35.62 34.09 33.51 31.75 30.34 27.57 25.21 26.94 29.79 25.34 22.43 20.31 27.57 30.75 32.37 32.13 29.27 33.15 33.62 34.61 35.76 37.10 35.98 36.19 36.59 36.38
42.82 42.85 42.87 42.67 42.90 43.07 43.13 43.05 43.07 43.49 43.56 43.64 43.68 43.25 43.62 43.29 39.44 30.30 32.15 35.79 41.21 37.29 25.12 21.03 22.71 32.65 36.13 34.53 32.68 31.09 32.04 29.41 29.35 27.43 25.61 26.44 26.56 27.64 23.54 20.58 27.66 30.68 32.56 33.38 34.93 35.11 31.23 33.66 31.50 35.93 36.62 36.87 37.74 37.33
42.82 42.57 42.54 42.56 42.57 42.84 42.62 42.40 42.18 42.05 42.04 41.86 41.80 41.51 40.78 39.92 38.31 33.24 36.30 40.98 38.99 32.92 31.12 19.70 20.88 24.86 34.96 25.20 24.21 30.73 27.64 29.19 29.19 26.99 27.78 26.21 27.60 26.97 23.18 27.86 30.77 32.99 34.75 34.80 35.37 36.42 35.17 35.59 35.55 35.60 36.40 35.40 34.60 34.12
42.97 42.82 42.75 42.50 42.10 42.03 42.19 41.81 41.43 41.49 41.48 41.30 40.85 40.74 38.57 35.52 31.34 34.25 39.93 39.77 36.97 33.65 24.81 23.20 19.31 14.58 33.88 28.60 29.39 28.45 29.88 21.22 29.98 26.00 26.80 27.94 26.55 23.95 27.94 30.70 31.08 32.95 32.54 32.90 34.94 34.70 34.24 33.07 33.58 34.47 33.97 34.34 32.90 33.04
42.74 42.48 42.53 42.40 42.05 42.11 41.93 41.60 41.54 41.44 41.55 40.94 37.37 31.46 26.41 33.19 41.24 39.08 34.86 30.88 30.78 30.06 27.58 22.45 26.21 19.91 28.14 26.88 22.85 22.95 25.32 24.55 20.27 25.81 29.26 26.58 24.62 30.37 32.39 32.77 32.96 32.75 34.68 35.89 30.68 29.22 29.93 30.42 31.66 31.88 33.42 34.41 34.24 34.30
42.14 42.00 41.72 41.64 41.54 41.54 41.51 41.51 41.50 41.33 39.41 35.23 30.58 32.62 35.01 40.15 34.20 32.09 26.94 25.65 24.43 23.60 26.61 25.77 26.31 23.74 30.76 22.04 23.13 27.93 23.36 24.94 18.76 23.92 24.39 23.61 23.45 30.48 34.94 33.11 33.98 35.00 35.56 34.99 34.21 33.74 34.11 34.22 30.64 30.01 30.73 33.51 34.51 34.38
41.79 41.91 41.61 41.33 41.47 41.36 41.49 41.86 41.44 38.24 37.86 35.77 34.67 38.07 36.71 32.29 27.16 24.50 20.14 26.70 27.11 23.20 26.02 24.97 25.43 29.42 30.13 31.30 22.97 25.98 24.90 24.22 20.54 27.61 22.21 19.21 27.26 34.03 35.65 31.81 34.77 36.24 35.56 35.64 35.57 32.16 30.04 29.81 30.52 31.65 32.26 31.96 32.01 32.10
42.69 42.51 41.91 42.14 41.86 41.28 41.52 41.66 41.34 41.03 39.82 37.64 34.94 27.61 24.52 24.37 17.34 20.11 15.11 22.62 24.47 26.24 27.36 30.13 29.50 31.13 31.62 30.77 27.75 21.97 18.06 17.49 25.25 13.42 18.00 23.37 33.40 34.70 34.86 35.54 33.97 33.20 32.97 31.21 30.50 30.84 31.45 31.25 31.85 31.49 30.72 30.38 30.91 31.24
41.11 42.18 42.60 42.49 42.47 42.18 41.82 41.56 41.51 39.81 34.40 32.37 26.39 20.09 19.86 18.44 22.46 24.59 26.87 26.41 28.88 29.45 28.11 28.10 30.92 28.47 29.95 27.84 23.97 18.95 24.12 23.93 14.07 11.15 20.40 29.38 32.33 34.50 33.80 32.95 31.56 29.16 29.23 28.72 29.49 30.25 30.08 29.94 29.68 29.78 28.84 31.05 30.15 29.27
41.76 41.91 42.04 42.03 42.73 42.54 42.13 41.90 41.72 37.87 33.98 26.80 28.66 16.03 21.70 25.46 26.65 28.43 29.19 30.29 31.40 31.79 29.14 27.33 30.33 26.80 28.02 27.40 27.24 24.18 17.26 15.13 19.37 17.00 24.36 29.86 32.93 30.75 28.92 29.06 28.09 28.94 28.91 28.44 29.29 29.08 28.67 28.42 28.49 29.18 29.47 30.34 29.84 29.39
39.80 39.16 38.59 42.17 42.57 42.42 42.20 40.92 38.02 37.63 30.96 28.62 26.80 23.46 25.37 24.60 24.57 25.76 27.58 27.79 33.38 31.93 29.72 27.19 25.83 23.16 25.58 27.46 24.41 21.96 21.19 15.38 24.19 27.70 32.09 32.05 29.96 28.61 29.07 28.99 29.21 29.82 29.21 28.78 28.72 28.90 28.44 27.79 28.08 28.77 30.26 29.12 28.82 29.34
38.99 35.55 41.26 41.83 41.95 41.93 41.45 37.92 34.95 30.85 27.57 27.03 23.99 27.14 25.10 24.76 23.60 24.82 28.49 28.30 34.72 31.92 25.64 24.18 21.70 22.36 29.62 26.33 24.75 28.34 24.98 27.77 30.55 31.68 32.65 31.23 30.44 29.23 29.09 28.94 28.52 28.96 28.72 28.34 28.15 27.80 27.94 29.21 29.28 29.24 28.67 24.41 27.85 28.81
36.57 38.09 41.42 41.47 41.40 39.62 37.46 36.40 32.13 30.16 25.88 27.37 24.20 26.74 28.26 29.68 26.77 27.97 28.56 30.44 32.09 31.18 28.17 25.42 29.71 24.26 21.12 22.91 22.73 29.33 30.64 28.02 28.94 30.09 30.54 32.30 31.17 30.22 27.61 28.79 29.44 29.55 29.49 28.71 28.21 28.37 28.30 28.17 27.65 25.96 27.73 28.23 26.05 23.86
38.09 39.05 40.71 41.27 39.49 34.98 31.37 32.05 32.95 27.46 26.47 26.63 29.37 29.19 28.15 29.16 32.46 30.78 29.82 31.46 34.20 35.18 31.76 27.23 23.73 22.07 22.70 29.11 27.65 28.19 28.63 28.83 28.31 29.93 31.62 31.18 27.70 28.90 29.02 29.86 29.40 29.30 28.56 28.76 29.06 28.90 29.17 29.43 27.88 28.06 28.04 29.50 26.28 25.57
38.34 38.52 38.88 39.84 40.05 32.50 30.31 30.58 34.05 29.20 26.48 28.04 29.25 29.49 29.40 28.64 30.50 31.52 32.45 32.32 32.15 30.93 27.66 24.93 22.07 27.18 27.31 29.03 29.39 29.34 29.70 30.72 29.64 27.45 27.21 29.04 30.52 30.04 28.05 29.60 28.82 29.20 29.37 29.37 28.93 28.95 28.80 27.74 26.16 28.38 26.63 27.85 26.96 24.97
38.00 37.68 38.63 38.54 35.78 33.61 31.91 31.71 30.37 30.95 29.87 26.88 29.37 29.94 26.51 29.45 27.37 27.76 29.45 32.28 29.47 27.90 25.13 25.78 28.98 29.86 30.13 30.66 30.83 30.16 30.34 28.24 27.73 27.98 27.47 27.06 29.26 23.85 27.22 30.05 29.76 30.47 26.78 26.80 26.95 27.22 27.59 26.92 27.30 26.10 24.97 24.04 24.22 25.48
35.67 38.64 35.34 35.13 31.18 31.20 30.03 33.43 29.72 31.66 29.88 28.48 28.42 30.27 25.50 22.04 24.44 25.36 30.48 29.77 26.34 25.51 27.17 28.27 28.10 27.15 27.99 27.24 26.16 28.46 27.98 29.71 30.48 29.36 28.85 27.87 24.75 23.42 26.98 29.74 26.78 25.89 28.24 24.35 25.67 26.82 24.85 24.12 24.64 25.35 23.68 24.42 26.20 25.67
36.71 36.44 33.73 32.83 28.83 28.97 28.56 33.21 29.41 29.68 25.77 25.55 28.30 25.75 24.16 24.59 27.58 31.81 22.70 26.27 27.12 27.87 27.90 28.02 27.30 29.47 27.32 28.16 30.87 30.47 28.16 28.38 27.98 24.84 26.71 30.50 27.52 28.65 31.13 30.66 29.90 26.80 27.70 26.96 27.72 26.42 27.19 25.62 25.18 25.14 26.95 25.85 25.30 24.93
37.04 31.04 28.72 26.52 27.22 23.31 30.38 28.70 30.74 29.04 28.41 26.17 25.32 22.92 24.39 26.45 30.29 27.51 23.64 26.35 28.01 28.10 26.80 27.90 26.90 27.05 25.95 27.39 23.24 23.01 24.19 26.39 24.83 25.47 26.02 28.24 26.06 26.42 30.43 28.84 30.45 30.49 29.58 30.47 29.72 27.14 24.85 23.02 26.10 25.68 26.94 27.66 27.84 27.10
27.16 26.36 26.17 18.26 25.31 22.90 21.08 23.53 25.36 25.69 19.76 23.45 22.92 21.41 23.83 29.10 25.51 24.80 24.54 25.16 25.04 24.11 25.45 27.03 25.10 25.04 24.37 21.12 21.12 21.54 24.79 24.98 25.01 25.06 26.04 29.66 27.50 27.32 24.53 29.92 30.43 29.18 30.10 28.97 27.63 27.66 27.85 26.53 24.85 25.11 24.57 24.70 24.14 24.85
13.91 24.90 21.52 20.25 22.13 23.27 23.43 20.49 21.02 21.56 24.15 22.79 24.30 27.59 27.51 24.63 21.94 19.86 20.41 21.07 21.80 23.05 23.65 23.81 23.00 20.03 21.66 22.08 19.38 19.21 19.34 22.17 24.58 24.54 25.34 26.89 28.12 27.17 24.22 19.91 21.90 25.88 28.44 28.45 26.96 24.93 26.08 27.77 24.59 21.61 25.80 23.99 23.81 23.56
16.77 12.67 20.74 24.10 21.53 22.96 21.42 24.92 26.28 23.18 19.96 19.82 21.42 21.88 22.88 20.53 16.73 17.54 19.99 20.33 20.57 22.14 24.31 23.98 22.98 21.19 19.64 19.77 21.11 21.94 22.52 22.98 24.62 25.89 27.55 28.08 29.11 29.55 28.20 24.04 20.43 22.43 25.48 26.24 26.89 27.08 25.27 26.12 27.77 23.18 22.33 25.68 25.21 26.52
17.83 18.68 8.60 15.98 17.87 20.01 16.26 19.08 19.46 16.13 16.53 18.83 19.48 18.16 15.24 13.77 12.35 17.26 17.92 21.04 21.78 22.83 22.03 21.93 22.27 21.12 19.14 20.05 18.43 21.24 22.32 24.20 26.16 25.72 23.87 25.73 28.80 28.15 28.05 28.38 24.75 23.41 20.95 22.85 23.05 26.10 27.03 27.02 25.02 26.87 22.11 22.78 22.69 21.68
13.25 18.75 16.02 5.56 10.64 14.67 17.81 16.75 17.35 17.50 18.66 17.52 13.73 14.90 15.65 16.09 17.01 17.65 18.38 19.26 20.67 19.74 16.69 15.83 17.01 18.70 18.16 16.38 15.22 18.94 19.27 17.88 16.42 11.58 9.91 9.13 15.59 18.94 22.78 24.98 25.47 25.56 21.35 21.64 24.41 23.98 24.38 23.73 23.11 22.91 23.49 24.87 22.24 20.43
10.02 17.91 11.39 8.19 5.35 9.35 17.29 19.85 17.37 18.06 18.73 18.69 18.97 18.98 16.44 15.20 16.40 17.69 17.31 16.83 15.66 14.62 14.13 12.73 13.78 15.38 12.56 11.12 12.12 12.33 18.13 16.26 13.30 12.07 8.70 5.70 10.97 17.24 20.98 20.28 20.40 23.22 25.98 25.20 22.36 25.05 25.60 23.81 23.70 20.81 20.18 20.63 20.67 19.44
17.72 15.28 12.00 14.16 8.60 15.32 15.30 15.79 15.86 15.17 12.95 12.69 13.92 12.47 14.32 13.47 14.39 14.05 12.45 12.29 12.40 11.61 10.70 10.49 11.07 12.60 10.56 9.41 10.25 10.26 10.91 8.34 6.61 7.71 8.13 7.91 9.80 12.71 12.85 14.37 18.46 21.76 22.67 23.52 22.26 22.85 23.76 24.80 24.79 24.95 22.71 20.12 20.48 18.49
12.42 11.87 11.78 5.66 7.25 11.46 15.86 10.39 8.43 7.41 8.28 7.71 10.98 19.30 16.39 14.55 9.90 9.01 11.26 10.44 9.74 9.05 8.75 8.81 9.77 10.97 10.72 11.93 13.62 14.54 16.50 14.83 14.32 5.74 4.54 2.92 2.71 5.46 9.06 12.81 17.53 19.59 20.05 19.39 19.86 18.36 19.44 22.26 23.86 17.89 14.94 13.51 13.17 12.79
10.36 10.73 12.66 12.86 7.63 4.50 6.84 6.34 6.13 4.25 5.57 12.16 11.84 10.27 7.18 7.91 5.96 9.74 9.84 9.62 7.16 6.15 6.47 7.29 11.17 9.50 10.68 11.79 12.80 13.26 16.31 12.81 14.33 15.49 10.78 6.56 3.30 4.07 4.41 8.43 11.41 15.75 16.78 15.55 14.97 15.50 15.53 15.60 14.58 13.87 12.60 11.33 9.74 8.65
MSLP
999.91 999.87 1000.01 1000.13 999.91 999.85 1000.45 1001.01 1001.42 1001.96 1002.69 1003.63 1004.33 1004.91 1004.75 1004.96 1005.26 1005.94 1007.50 1007.09 1007.46 1008.50 1008.72 1008.41 1008.72 1008.92 1008.98 1009.79 1010.98 1011.92 1012.61 1013.47 1014.66 1015.66 1016.09 1016.12 1015.55 1014.92 1014.29 1013.50 1012.72 1012.59 1012.85 1012.70 1012.63 1012.13 1011.11 1009.18 1008.94 1009.26 1008.68 1007.84 1007.66 1007.13
1001.77 1001.83 1001.77 1001.71 1001.82 1002.33 1002.69 1002.67 1003.18 1003.53 1004.23 1005.22 1005.68 1005.93 1006.16 1006.23 1006.48 1006.72 1007.76 1007.90 1008.22 1009.09 1009.61 1009.41 1009.30 1008.89 1008.94 1009.40 1010.37 1011.78 1012.86 1013.82 1014.87 1015.20 1015.97 1016.18 1015.84 1015.52 1014.91 1014.01 1012.58 1012.48 1012.43 1012.04 1012.12 1011.28 1009.67 1008.86 1008.27 1008.07 1008.03 1007.93 1007.47 1007.05
1003.45 1003.56 1003.47 1003.57 1003.76 1003.75 1003.88 1004.43 1004.89 1005.29 1005.76 1006.23 1006.62 1006.97 1006.91 1006.94 1007.16 1007.58 1008.41 1008.68 1009.26 1010.14 1010.32 1009.83 1009.41 1008.97 1009.01 1009.52 1010.22 1011.76 1012.80 1013.40 1013.96 1014.39 1016.02 1016.52 1016.19 1015.43 1014.61 1013.17 1012.51 1011.87 1011.20 1011.17 1011.35 1009.79 1008.83 1008.05 1007.81 1007.51 1007.37 1007.14 1006.85 1006.38
1005.12 1005.01 1005.03 1004.95 1004.97 1005.12 1005.57 1005.78 1005.91 1006.13 1006.58 1006.94 1006.98 1007.33 1007.53 1007.90 1007.96 1008.34 1009.20 1009.52 1010.10 1010.85 1011.18 1010.20 1008.85 1008.96 1009.07 1009.72 1010.25 1011.03 1011.90 1012.65 1013.69 1014.72 1015.80 1016.07 1015.63 1014.61 1013.85 1013.10 1012.63 1011.79 1011.18 1010.33 1009.65 1008.70 1008.10 1007.53 1007.24 1006.80 1006.56 1006.05 1005.77 1005.54
1006.24 1006.11 1006.04 1006.01 1006.15 1006.29 1006.57 1006.88 1006.95 1007.12 1007.48 1007.84 1008.01 1008.11 1008.42 1008.88 1009.21 1009.44 1010.06 1010.55 1010.83 1011.41 1011.58 1010.78 1010.06 1009.34 1009.35 1009.71 1010.24 1010.76 1011.66 1012.72 1013.73 1014.86 1015.27 1015.24 1014.40 1014.04 1013.19 1012.60 1011.13 1010.63 1009.71 1009.67 1008.71 1008.08 1007.92 1007.26 1006.86 1006.12 1005.70 1005.26 1004.98 1004.77
1006.96 1007.10 1007.22 1007.31 1007.68 1007.89 1008.01 1007.90 1007.74 1008.00 1008.39 1008.58 1008.89 1009.12 1009.23 1009.53 1009.84 1010.71 1011.27 1011.01 1010.76 1010.69 1011.26 1011.50 1010.66 1009.78 1009.48 1009.58 1010.19 1010.70 1011.31 1012.07 1013.09 1013.85 1014.07 1013.55 1013.04 1013.24 1012.89 1011.23 1009.42 1009.11 1008.55 1008.13 1007.84 1007.28 1006.99 1006.84 1006.46 1006.05 1005.65 1005.15 1004.68 1004.46
1008.37 1008.39 1008.45 1008.53 1008.58 1008.53 1008.49 1008.59 1008.84 1009.11 1009.30 1009.34 1009.36 1009.68 1010.01 1010.24 1010.53 1011.37 1011.62 1011.32 1010.80 1011.11 1011.78 1012.12 1011.67 1010.18 1009.62 1009.72 1010.23 1010.69 1011.08 1011.79 1012.42 1012.94 1012.76 1012.64 1012.20 1012.42 1011.76 1010.36 1006.95 1008.69 1007.84 1007.14 1006.72 1006.45 1006.42 1006.45 1006.60 1006.23 1005.71 1005.27 1004.89 1004.54
1009.23 1009.30 1009.35 1009.37 1009.37 1009.40 1009.49 1009.65 1009.79 1009.90 1009.99 1010.06 1010.18 1010.39 1010.64 1010.84 1011.28 1011.59 1011.42 1011.01 1011.08 1011.71 1012.15 1012.54 1011.80 1011.04 1010.55 1010.63 1011.03 1010.80 1011.36 1011.65 1011.73 1011.95 1011.52 1011.46 1011.20 1011.00 1009.89 1008.14 1007.70 1007.23 1007.02 1006.82 1006.63 1006.55 1006.49 1006.45 1006.38 1006.16 1005.70 1005.30 1005.06 1004.85
1009.75 1009.83 1009.90 1009.95 1010.01 1010.09 1010.19 1010.29 1010.40 1010.52 1010.63 1010.75 1010.85 1010.87 1010.88 1011.16 1011.57 1011.84 1011.78 1011.75 1011.85 1012.67 1012.66 1012.58 1012.39 1012.23 1011.07 1011.10 1011.07 1011.18 1011.26 1011.71 1011.19 1011.19 1010.87 1010.65 1010.12 1009.40 1007.94 1007.53 1007.18 1006.90 1006.98 1006.87 1006.68 1006.46 1006.44 1006.36 1006.31 1006.09 1005.75 1005.50 1005.37 1005.14
1010.15 1010.21 1010.30 1010.41 1010.53 1010.65 1010.76 1010.85 1010.91 1010.97 1011.04 1011.08 1011.10 1011.37 1011.93 1011.77 1011.76 1012.03 1012.16 1012.40 1012.64 1012.75 1012.84 1012.87 1012.00 1011.99 1011.46 1011.48 1011.37 1011.45 1011.30 1011.32 1010.95 1009.96 1009.53 1009.56 1008.44 1007.36 1006.88 1006.49 1006.47 1006.54 1006.59 1006.61 1006.72 1006.54 1006.36 1006.26 1006.18 1005.86 1005.58 1005.46 1005.41 1005.30
1010.64 1010.71 1010.78 1010.86 1010.96 1011.07 1011.16 1011.26 1011.36 1011.47 1011.57 1011.62 1011.81 1011.80 1011.90 1011.78 1012.04 1012.23 1012.54 1012.75 1012.80 1012.75 1012.29 1011.95 1011.72 1011.60 1011.16 1011.65 1011.60 1011.29 1011.01 1010.62 1010.21 1009.13 1009.05 1008.56 1007.64 1006.39 1006.29 1005.99 1005.97 1006.02 1006.08 1006.17 1006.35 1006.43 1006.43 1006.43 1006.28 1006.02 1005.79 1005.61 1005.36 1005.38
1011.10 1011.19 1011.27 1011.34 1011.42 1011.52 1011.61 1011.72 1011.89 1012.09 1012.35 1012.11 1012.05 1011.55 1011.68 1012.07 1012.27 1012.43 1012.13 1011.79 1011.68 1011.36 1011.31 1011.27 1011.15 1011.15 1011.34 1011.46 1011.75 1011.26 1010.94 1010.30 1009.53 1008.72 1008.78 1008.02 1007.06 1006.49 1006.28 1006.12 1006.14 1006.19 1006.30 1006.33 1006.43 1006.59 1006.58 1006.48 1006.33 1006.19 1006.04 1005.84 1005.66 1005.46
1011.43 1011.48 1011.55 1011.62 1011.72 1011.82 1011.94 1012.07 1012.17 1012.17 1012.00 1011.62 1011.83 1012.16 1012.33 1012.31 1012.25 1011.77 1011.26 1010.86 1010.85 1010.82 1010.80 1010.78 1010.76 1010.87 1011.19 1011.35 1011.41 1011.33 1010.81 1009.87 1008.79 1008.82 1008.41 1007.42 1007.06 1006.71 1006.51 1006.55 1006.72 1006.78 1006.87 1006.94 1006.91 1006.81 1006.69 1006.53 1006.40 1006.26 1006.12 1005.85 1005.61 1005.34
1011.59 1011.59 1011.57 1011.65 1011.74 1011.88 1012.02 1012.15 1012.30 1012.37 1012.38 1012.05 1012.11 1012.23 1012.39 1011.84 1011.37 1010.54 1010.39 1010.22 1010.16 1010.27 1010.45 1010.42 1010.68 1010.86 1010.61 1010.86 1010.85 1010.90 1010.01 1009.48 1009.19 1008.57 1007.68 1007.42 1006.97 1006.83 1006.81 1007.06 1007.32 1007.49 1007.45 1007.43 1007.24 1007.07 1006.89 1006.76 1006.49 1006.26 1005.98 1005.71 1005.45 1005.15
1011.62 1011.62 1011.58 1011.52 1011.58 1011.78 1011.99 1012.19 1012.39 1012.60 1012.44 1012.27 1012.17 1012.13 1011.58 1010.99 1010.48 1010.11 1009.89 1009.88 1009.66 1009.63 1009.90 1010.12 1010.05 1010.21 1010.13 1010.11 1009.92 1009.80 1009.77 1009.35 1008.61 1007.79 1007.12 1007.02 1007.25 1007.52 1007.83 1007.89 1007.88 1007.80 1007.70 1007.56 1007.42 1007.23 1007.03 1006.82 1006.56 1006.19 1005.87 1005.58 1005.33 1004.91
1011.74 1011.70 1011.40 1011.08 1011.31 1011.56 1011.92 1012.34 1012.66 1012.74 1012.78 1012.45 1012.03 1011.42 1010.86 1010.93 1010.51 1010.19 1010.11 1009.85 1009.45 1009.64 1009.55 1009.93 1010.02 1009.81 1009.43 1009.26 1009.05 1008.76 1008.66 1008.41 1008.42 1007.97 1007.84 1007.78 1007.75 1007.92 1008.01 1008.08 1007.97 1007.97 1007.92 1007.74 1007.55 1007.32 1007.07 1006.76 1006.49 1006.15 1005.75 1005.49 1005.20 1004.80
1011.83 1011.41 1010.68 1010.89 1011.25 1011.60 1011.96 1012.52 1012.87 1013.01 1012.75 1012.07 1011.11 1010.55 1010.72 1010.76 1010.56 1010.27 1009.80 1009.52 1009.22 1009.85 1009.85 1009.90 1009.86 1009.10 1008.93 1008.50 1008.29 1007.93 1008.15 1008.54 1008.59 1008.42 1008.16 1008.12 1008.11 1008.45 1008.42 1008.19 1008.07 1008.01 1007.92 1007.76 1007.56 1007.27 1006.94 1006.60 1006.26 1005.92 1005.72 1005.52 1005.30 1005.01
1011.48 1011.03 1010.94 1011.07 1011.39 1011.82 1012.10 1012.41 1012.65 1012.20 1011.74 1010.91 1010.55 1009.73 1009.88 1009.69 1009.46 1009.40 1009.29 1009.12 1009.37 1009.48 1009.69 1009.74 1009.66 1009.13 1008.62 1008.26 1007.95 1008.42 1008.64 1008.64 1008.63 1008.43 1008.12 1008.03 1008.22 1008.42 1008.42 1008.24 1008.04 1007.94 1007.78 1007.61 1007.38 1007.11 1006.76 1006.55 1006.38 1006.14 1005.85 1005.53 1005.38 1005.30
1011.20 1010.99 1011.16 1011.12 1011.39 1011.86 1011.94 1012.02 1012.12 1011.11 1010.35 1009.69 1009.18 1008.98 1009.03 1008.75 1008.39 1008.43 1008.59 1008.80 1008.84 1009.20 1009.61 1009.65 1009.45 1008.97 1008.44 1008.50 1008.80 1008.88 1008.94 1008.88 1008.70 1008.48 1008.29 1008.47 1008.55 1008.49 1008.35 1008.13 1008.04 1007.87 1007.73 1007.52 1007.26 1007.02 1006.79 1006.41 1006.40 1006.21 1005.97 1005.65 1005.48 1005.44
1010.82 1010.87 1010.93 1011.03 1011.04 1010.88 1010.82 1010.67 1010.91 1010.18 1008.99 1008.33 1008.12 1008.08 1008.15 1007.94 1007.71 1008.01 1008.24 1008.56 1008.93 1009.36 1009.32 1009.11 1008.73 1008.72 1008.90 1009.12 1009.25 1009.26 1009.25 1009.06 1008.95 1008.78 1008.69 1008.65 1008.49 1008.42 1008.29 1008.07 1007.97 1007.77 1007.65 1007.47 1007.30 1007.12 1006.89 1006.72 1006.59 1006.38 1006.14 1005.91 1005.66 1005.68
1010.37 1010.12 1010.21 1010.29 1010.08 1010.33 1010.03 1008.99 1009.00 1008.61 1007.94 1007.62 1007.07 1007.27 1007.53 1007.11 1007.37 1007.74 1008.00 1008.11 1008.74 1008.74 1008.52 1008.29 1008.63 1009.02 1009.21 1009.35 1009.39 1009.45 1009.43 1009.33 1009.31 1009.24 1009.01 1008.74 1008.51 1008.35 1008.15 1007.70 1007.75 1007.60 1007.63 1007.59 1007.51 1007.31 1007.14 1007.13 1006.91 1006.61 1006.53 1006.40 1006.24 1006.09
1009.67 1009.70 1009.99 1009.86 1009.42 1008.99 1008.60 1008.03 1007.65 1007.03 1007.23 1006.79 1006.61 1006.46 1006.69 1006.95 1006.95 1007.02 1007.14 1007.78 1007.85 1007.81 1007.91 1008.30 1008.80 1009.01 1009.15 1009.40 1009.57 1009.48 1009.44 1009.39 1009.17 1009.01 1008.82 1008.63 1008.47 1008.21 1007.98 1007.79 1007.68 1007.76 1007.52 1007.63 1007.52 1007.47 1007.39 1007.34 1007.08 1006.87 1006.87 1006.72 1006.50 1006.47
1009.40 1009.46 1009.64 1009.50 1009.09 1008.16 1007.33 1006.90 1006.77 1006.18 1006.21 1005.98 1005.82 1006.03 1006.06 1005.97 1005.80 1006.15 1006.74 1006.70 1007.24 1007.62 1007.90 1008.30 1008.54 1008.68 1009.07 1009.19 1009.48 1009.69 1009.60 1009.47 1009.40 1009.22 1008.88 1008.55 1008.21 1007.96 1007.67 1007.71 1007.68 1007.66 1007.64 1007.58 1007.56 1007.55 1007.47 1007.24 1007.11 1007.03 1006.88 1006.89 1006.90 1006.96
1008.60 1008.94 1008.67 1008.43 1008.11 1007.28 1006.57 1006.02 1005.65 1005.18 1005.11 1005.06 1004.94 1005.03 1004.87 1004.85 1005.26 1005.81 1006.18 1006.43 1007.22 1007.88 1008.15 1008.39 1008.64 1009.01 1009.18 1009.51 1009.88 1010.16 1010.03 1009.92 1009.72 1009.34 1009.04 1008.73 1008.35 1008.18 1007.87 1007.70 1007.60 1007.53 1007.54 1007.48 1007.37 1007.49 1007.53 1007.51 1007.20 1007.18 1007.09 1007.04 1007.02 1007.05
1008.01 1007.90 1008.19 1007.86 1007.33 1007.04 1006.18 1005.53 1005.13 1005.21 1004.69 1004.49 1004.52 1004.23 1003.87 1004.34 1005.10 1005.63 1005.98 1007.08 1007.85 1008.42 1008.75 1008.95 1009.26 1009.57 1009.86 1010.15 1010.44 1010.40 1010.37 1010.37 1010.17 1009.82 1009.25 1009.00 1008.69 1008.39 1008.07 1007.91 1007.56 1007.42 1007.56 1007.63 1007.55 1007.52 1007.42 1007.29 1007.27 1007.30 1007.27 1007.24 1007.27 1007.36
1008.69 1008.15 1008.50 1008.33 1007.81 1007.08 1006.50 1006.20 1005.92 1005.73 1005.31 1004.67 1004.21 1003.75 1003.67 1004.31 1005.28 1006.53 1008.22 1009.27 1009.57 1009.72 1009.88 1010.12 1010.27 1010.39 1010.60 1010.77 1010.99 1011.01 1010.88 1010.58 1010.39 1009.95 1009.41 1009.16 1008.90 1008.75 1008.56 1008.53 1008.32 1008.22 1008.08 1007.97 1007.87 1007.71 1007.51 1007.31 1007.23 1007.19 1007.16 1007.26 1007.36 1007.45
1009.85 1010.09 1010.06 1009.93 1009.43 1008.55 1007.55 1006.78 1006.31 1006.27 1006.29 1006.18 1005.98 1005.63 1005.14 1004.91 1006.86 1009.21 1010.56 1011.16 1011.21 1011.31 1011.15 1011.06 1011.10 1011.40 1011.74 1011.74 1011.62 1011.35 1010.96 1010.58 1010.35 1009.88 1009.28 1008.94 1008.72 1008.53 1008.60 1008.65 1008.83 1008.83 1008.45 1008.29 1008.06 1007.77 1007.57 1007.31 1007.07 1007.08 1007.13 1007.14 1007.26 1007.28
1010.82 1010.78 1010.94 1010.65 1010.09 1009.54 1008.84 1008.01 1007.68 1008.14 1008.25 1008.30 1007.68 1007.31 1007.94 1009.02 1010.60 1011.66 1012.31 1012.49 1012.42 1012.22 1012.12 1012.15 1012.09 1012.08 1012.21 1012.22 1012.05 1011.72 1011.18 1010.60 1009.97 1009.42 1009.09 1008.79 1008.41 1008.99 1009.02 1008.87 1008.76 1008.62 1008.46 1008.30 1008.22 1008.00 1007.72 1007.45 1007.29 1007.01 1007.28 1007.33 1007.43 1007.31
1011.62 1011.75 1011.58 1011.55 1010.93 1010.28 1009.78 1009.74 1009.79 1010.21 1010.39 1009.93 1009.76 1009.67 1010.40 1011.69 1012.52 1012.81 1013.19 1013.22 1013.08 1013.08 1013.16 1013.16 1013.10 1012.81 1012.65 1012.66 1012.59 1012.29 1012.10 1011.71 1011.19 1010.92 1010.96 1010.62 1010.27 1010.06 1009.91 1009.53 1009.26 1008.85 1008.34 1008.21 1007.98 1007.89 1007.80 1007.71 1007.53 1007.31 1007.22 1007.20 1007.40 1007.48
1012.68 1012.46 1012.39 1012.06 1011.87 1011.42 1011.36 1011.36 1011.33 1011.09 1010.95 1010.93 1010.90 1010.66 1011.77 1012.96 1013.78 1013.82 1013.96 1014.06 1014.10 1014.25 1014.42 1014.33 1014.16 1013.94 1013.91 1013.81 1013.57 1013.19 1012.84 1012.66 1012.55 1012.73 1012.60 1012.36 1012.16 1011.62 1010.94 1010.37 1009.82 1009.28 1008.81 1008.15 1008.05 1007.81 1007.71 1007.63 1007.51 1007.50 1007.50 1007.58 1007.62 1007.76
1013.08 1012.92 1012.74 1012.57 1012.53 1012.23 1011.99 1011.74 1011.38 1011.20 1011.14 1010.94 1010.91 1011.37 1012.14 1013.46 1014.56 1014.79 1014.91 1015.06 1015.16 1015.25 1015.35 1015.26 1015.05 1014.74 1014.72 1014.56 1014.31 1013.97 1013.69 1013.01 1013.10 1013.01 1013.03 1013.08 1012.74 1012.30 1011.70 1011.07 1010.33 1009.67 1009.27 1008.77 1008.36 1007.98 1007.72 1007.58 1007.41 1007.37 1007.74 1008.00 1008.17 1008.57
1013.79 1013.66 1013.71 1013.41 1013.28 1012.66 1012.75 1012.82 1012.34 1011.93 1011.60 1011.37 1011.41 1011.25 1012.33 1013.08 1014.32 1015.32 1015.83 1015.71 1015.92 1016.03 1016.03 1015.81 1015.50 1015.29 1015.18 1014.88 1014.53 1014.10 1013.71 1013.04 1012.75 1012.77 1012.86 1012.90 1012.78 1012.42 1012.05 1011.31 1010.56 1009.85 1009.48 1009.20 1008.70 1008.30 1007.91 1007.62 1007.53 1007.94 1008.41 1008.98 1009.57 1009.97
1014.05 1013.78 1013.78 1013.94 1013.92 1013.89 1013.90 1013.84 1013.49 1013.02 1012.56 1012.51 1013.01 1013.14 1013.45 1014.19 1015.29 1016.23 1015.96 1015.94 1016.29 1016.36 1016.30 1016.09 1015.76 1015.54 1015.13 1014.72 1014.24 1013.74 1013.33 1012.74 1012.62 1012.81 1012.85 1012.82 1012.70 1012.47 1012.16 1011.61 1011.03 1010.18 1009.78 1009.61 1009.32 1009.01 1008.90 1008.81 1008.98 1009.32 1009.71 1010.16 1010.72 1011.26
Wind_Speed
27 27 27 27 27 28 27 25 25 24 23 21 20 18 18 18 18 7 2 6 5 3 5 7 3 5 5 4 5 1 7 4 4 3 3 4 4 4 4 6 5 3 2 3 3 2 6 2 2 2 6 11 11 13
26 26 26 26 26 25 24 24 23 22 21 18 17 17 16 17 16 9 4 4 5 5 1 2 4 5 6 4 6 2 7 3 4 3 1 1 3 1 3 4 1 3 4 2 3 5 12 7 6 7 6 8 5 11
24 24 24 24 24 24 24 23 21 20 18 16 15 16 16 17 17 11 4 3 4 4 4 4 3 5 0 1 4 6 1 4 2 5 3 3 3 2 3 5 3 5 3 4 3 5 11 7 5 6 4 5 2 2
21 21 21 21 21 21 20 19 19 18 17 16 16 15 15 15 14 11 4 4 4 2 4 4 2 3 7 6 4 5 4 2 5 4 3 3 2 3 4 5 7 5 6 6 10 12 9 10 10 7 9 8 7 8
18 19 19 19 19 18 18 17 17 16 15 14 14 14 13 11 9 6 4 3 3 4 1 2 6 6 5 8 9 7 5 4 3 2 3 4 3 1 4 5 11 5 9 4 9 13 6 12 8 9 10 6 8 5
17 17 17 17 17 16 16 16 16 15 13 12 11 10 9 6 4 5 5 2 1 2 4 2 4 4 3 4 6 6 4 4 4 4 4 4 6 2 3 5 7 6 6 8 10 9 10 3 6 9 9 8 7 6
14 14 15 15 15 15 16 16 16 15 14 14 12 10 10 8 4 3 2 2 1 1 4 3 4 4 3 3 2 2 1 3 5 4 6 6 6 4 6 15 24 14 16 16 14 8 4 3 5 9 9 8 10 9
12 12 13 13 14 14 14 14 14 14 14 13 12 10 6 2 2 2 3 5 5 2 2 0 4 4 5 1 1 2 3 3 3 4 2 4 3 4 8 11 12 11 8 10 8 9 3 5 6 9 9 7 9 8
10 10 10 11 11 12 11 11 11 10 9 8 6 5 3 4 3 1 2 4 2 3 1 1 1 4 1 2 2 2 3 1 4 4 5 4 3 7 10 11 15 12 4 7 10 7 5 5 6 7 7 8 7 8
8 8 8 8 8 8 8 7 7 7 7 6 3 4 3 1 8 4 4 3 3 2 0 2 1 2 4 1 3 1 2 3 2 6 3 4 6 9 10 11 9 8 7 5 8 8 5 6 8 6 7 7 7 9
5 6 6 5 5 5 4 3 3 3 5 1 2 1 1 5 0 0 1 2 2 2 3 4 4 3 3 2 2 2 3 3 2 4 4 3 4 2 3 8 6 5 6 7 6 7 7 8 7 6 7 9 7 8
2 3 3 3 3 2 2 1 2 2 1 4 4 2 1 1 1 2 3 3 4 3 3 3 4 4 2 2 2 4 3 1 5 3 2 3 2 2 5 2 4 5 6 5 6 5 5 6 6 6 5 7 7 8
2 3 4 4 4 4 4 3 3 6 7 2 1 2 2 2 2 4 4 2 0 1 2 2 1 1 2 3 3 1 2 5 2 3 4 3 4 2 5 1 3 7 8 7 7 7 8 7 7 4 7 7 7 8
3 3 5 7 7 6 5 4 3 4 2 2 2 2 3 3 4 3 2 3 1 1 2 2 2 3 3 3 3 2 5 2 3 2 5 3 4 4 5 5 5 5 5 7 7 6 6 7 7 9 6 6 6 8
2 4 5 6 8 9 8 6 4 2 2 2 2 4 6 5 2 2 1 2 2 1 0 2 1 3 3 3 3 3 3 4 5 5 1 2 5 6 5 4 5 8 6 5 6 6 5 6 7 8 6 6 6 8
3 6 6 8 9 10 8 4 2 1 3 3 4 3 3 2 4 2 1 1 1 2 1 2 2 2 5 3 4 6 3 3 4 3 3 3 5 5 6 7 5 4 6 5 5 5 6 6 6 8 9 4 6 6
3 4 0 11 9 8 10 3 1 2 4 4 4 3 2 2 4 3 2 2 2 1 2 1 3 7 1 3 4 1 1 2 3 3 1 2 3 4 7 5 4 5 5 4 4 5 5 6 6 6 4 3 5 5
4 4 4 7 8 4 1 3 2 4 8 6 4 3 3 4 3 3 2 1 2 2 1 3 1 3 3 3 2 3 1 3 2 1 3 4 3 1 2 4 5 6 5 5 5 5 4 4 4 3 5 4 2 2
7 7 8 7 6 4 5 6 4 5 9 3 5 3 2 3 4 4 2 1 2 3 1 2 4 3 3 3 1 1 2 2 3 5 2 2 3 3 4 4 4 3 4 5 5 3 5 6 1 3 3 4 1 1
8 10 12 9 7 3 5 4 4 4 4 6 3 4 3 4 3 1 3 3 3 2 3 4 4 0 1 2 1 2 2 3 3 3 3 4 3 5 5 3 3 3 3 4 4 4 3 3 2 3 3 4 2 2
6 2 3 5 5 5 4 3 5 4 3 3 3 4 3 1 2 4 3 4 3 3 3 2 3 3 1 1 1 1 0 2 2 2 4 4 4 2 5 4 3 2 1 1 2 3 3 3 4 2 2 2 3 3
4 9 1 2 3 5 5 6 4 4 4 3 2 3 3 3 3 4 4 3 3 3 2 3 3 3 3 3 2 1 2 3 4 3 4 4 3 3 3 2 2 2 0 1 1 2 1 2 3 3 3 2 3 2
7 5 3 4 5 4 3 3 6 5 5 4 3 3 3 3 4 4 3 3 2 2 3 3 3 3 3 2 3 2 3 3 3 3 4 6 3 3 4 1 1 1 1 1 0 1 1 2 3 2 1 1 1 1
7 4 5 6 6 5 3 4 4 3 4 3 4 5 4 4 5 3 4 3 4 4 3 4 3 3 3 6 3 2 2 3 4 4 4 6 3 3 3 2 1 1 1 2 2 1 2 1 1 2 2 2 1 2
5 5 4 6 4 4 4 4 4 5 4 6 5 4 4 4 5 5 4 4 6 6 4 5 4 4 3 2 2 2 4 5 6 7 5 5 5 5 3 5 2 1 1 2 3 3 2 2 1 2 0 2 3 3
3 4 4 5 5 4 2 3 5 6 6 4 6 3 3 4 3 4 4 5 6 6 6 5 3 3 3 2 2 2 2 2 5 6 4 4 5 4 3 3 3 2 3 2 2 3 4 4 3 1 2 3 4 4
4 5 4 3 6 6 5 3 2 3 3 1 3 4 6 1 6 4 3 6 4 5 5 5 6 6 5 5 5 4 4 4 4 7 7 6 5 3 2 1 2 2 3 3 4 4 4 4 4 3 2 2 2 1
2 5 4 7 3 3 4 4 4 6 4 6 6 4 4 4 4 3 3 4 5 5 5 5 5 4 2 3 3 5 6 6 7 5 4 4 4 8 9 5 1 4 3 3 3 3 4 4 4 3 1 2 2 1
3 3 4 5 4 4 3 4 4 3 4 3 4 4 3 3 3 3 3 4 3 4 4 4 5 4 4 5 4 4 3 7 10 8 8 4 6 5 8 6 7 7 4 3 4 3 2 2 3 2 1 3 3 2
4 3 3 3 2 2 4 4 2 2 1 1 2 0 4 3 3 3 4 5 6 6 5 4 4 6 6 6 7 8 4 3 4 3 3 3 5 8 8 7 7 7 9 4 3 2 4 3 2 2 1 1 1 2
3 2 3 1 3 2 2 3 3 2 2 2 3 2 4 5 3 3 3 3 3 3 4 5 5 4 6 7 7 7 8 2 3 4 2 2 4 6 6 7 7 6 7 7 5 4 3 3 4 4 5 7 9 8
3 3 6 3 4 4 5 5 3 2 3 1 2 1 4 4 4 3 2 2 3 4 4 4 5 6 5 5 6 6 12 5 0 1 3 2 3 4 7 7 7 6 6 7 5 4 4 5 1 8 10 11 11 11
5 6 4 3 4 6 4 4 4 4 4 4 4 4 3 3 4 2 1 3 3 1 2 3 2 4 7 8 7 8 10 3 2 4 1 1 3 4 4 5 6 7 5 4 4 4 7 10 10 11 12 12 12 12
Wind_Direction
68 70 70 69 71 75 78 82 83 84 84 82 79 75 72 60 45 63 38 29 81 90 22 33 58 80 51 79 116 245 50 334 39 101 142 211 241 232 275 276 282 266 203 223 253 205 273 345 354 147 247 309 307 327
68 70 71 74 75 76 78 78 78 81 85 88 86 81 74 63 42 37 64 25 59 77 215 325 13 32 54 47 119 62 154 49 209 83 10 19 347 69 216 262 262 278 203 303 261 239 288 292 204 234 267 292 342 332
69 71 71 74 77 78 80 82 84 86 87 87 88 86 79 71 51 46 59 29 51 65 342 33 287 264 350 61 83 116 205 172 144 144 152 225 232 155 211 247 272 287 290 240 208 240 287 311 211 211 192 215 206 288
70 72 75 74 74 76 79 80 82 81 80 79 78 77 72 67 59 41 48 6 74 94 92 297 7 131 194 176 179 155 157 56 103 96 160 217 213 237 235 254 275 237 307 270 285 288 331 304 288 216 230 213 209 245
73 72 71 74 74 75 76 78 80 79 79 79 80 78 74 71 68 72 55 40 69 116 161 291 318 268 268 161 183 193 175 168 149 131 188 228 233 244 244 238 252 192 246 220 266 282 250 274 282 266 256 267 259 261
65 67 70 74 79 82 83 80 76 74 75 78 86 91 90 86 50 61 40 335 81 67 75 13 297 291 193 186 195 204 191 170 153 167 211 219 203 150 257 259 242 245 269 275 280 276 286 336 323 347 334 318 302 294
79 79 79 78 80 80 78 77 75 75 80 77 82 101 85 64 38 90 167 202 114 77 70 348 306 316 200 216 187 161 183 217 170 202 221 249 246 226 249 261 275 275 273 274 278 291 341 359 298 318 323 334 339 331
86 87 88 87 87 86 85 84 83 82 79 75 75 77 72 28 157 63 4 20 13 31 51 122 275 11 16 235 330 198 197 188 249 221 233 216 239 199 249 253 260 268 331 320 324 326 280 297 316 315 322 326 322 311
84 83 87 88 88 86 84 84 83 81 78 74 66 50 42 21 45 96 15 351 32 85 343 107 187 254 297 265 207 337 163 195 223 198 213 166 196 225 245 291 296 298 296 298 314 301 310 277 273 287 301 302 305 312
83 79 80 84 87 88 88 87 82 71 58 24 5 44 19 0 112 100 12 40 16 307 283 223 281 270 97 296 284 65 180 221 239 230 145 194 247 245 241 239 248 251 263 298 303 311 309 309 308 311 312 308 308 308
90 88 81 83 89 86 88 82 60 50 16 348 41 61 156 138 180 96 163 223 181 228 210 232 194 221 341 132 245 221 242 234 250 248 160 228 259 199 302 229 247 258 232 243 238 252 277 301 317 319 315 309 307 314
129 135 128 118 129 136 150 165 83 82 285 308 297 245 142 222 228 184 216 222 207 232 194 182 221 201 175 181 119 280 236 300 250 150 119 260 219 148 250 220 249 259 271 306 351 355 342 325 314 322 317 307 305 298
267 213 204 196 189 193 202 220 227 305 329 248 169 48 78 239 253 201 212 214 156 251 253 2 313 215 146 198 219 297 281 238 1 48 229 214 79 296 235 245 11 30 27 11 348 339 339 326 321 305 313 295 284 284
275 284 252 222 206 206 208 222 238 307 293 262 174 233 196 225 248 203 134 136 197 148 290 195 146 203 186 170 211 212 241 36 314 269 239 158 174 244 54 37 27 2 0 341 325 319 320 321 313 314 283 284 290 290
327 292 274 258 212 205 201 208 211 278 279 273 234 233 217 233 289 260 264 59 291 207 61 330 238 137 201 216 213 222 318 253 211 239 288 68 80 67 37 13 357 343 336 328 326 320 315 317 311 308 308 298 299 294
329 307 233 222 193 200 181 152 157 31 324 260 243 267 262 8 280 16 336 272 334 0 20 78 253 250 226 210 206 210 226 210 354 324 19 28 44 35 6 348 339 344 325 320 318 314 307 300 299 298 301 306 314 319
303 258 151 171 168 167 169 101 94 226 235 234 245 212 240 282 224 224 193 234 135 132 237 160 209 226 204 235 230 313 54 28 330 318 350 42 55 2 346 330 338 313 304 299 296 293 295 298 295 308 327 305 333 343
240 298 203 181 154 123 209 156 243 226 233 238 240 213 182 204 229 256 225 253 121 188 152 222 314 251 227 246 351 66 34 269 254 302 321 343 77 18 295 320 306 309 300 298 291 289 288 306 318 316 316 306 237 0
284 328 342 191 157 152 186 194 208 250 224 242 229 231 208 230 219 204 183 169 126 105 166 226 233 229 236 64 32 1 330 332 331 328 335 57 328 317 302 301 305 306 317 314 315 314 311 305 349 310 319 318 16 137
234 279 288 271 234 206 210 197 192 238 243 217 203 221 190 202 183 182 149 148 130 178 202 217 221 75 50 67 15 341 314 338 346 333 340 349 341 334 304 275 271 281 300 314 325 342 334 345 342 334 336 357 24 40
199 163 329 262 201 187 279 217 189 228 242 231 217 182 236 155 170 174 199 141 167 203 223 206 100 103 128 198 132 283 92 21 327 293 303 304 302 282 290 273 262 273 241 310 332 332 359 8 332 339 9 15 9 33
236 160 177 211 241 211 222 207 233 201 190 228 248 187 212 186 198 205 143 176 214 189 136 122 134 161 145 141 205 281 274 307 297 284 289 274 287 312 308 296 353 319 180 303 341 330 340 321 334 357 29 13 31 48
304 156 216 225 245 237 242 194 214 203 208 218 169 205 222 202 199 123 179 186 126 111 120 129 165 166 168 231 79 56 339 332 331 324 318 329 283 284 289 32 8 18 350 242 185 316 336 344 350 354 332 115 88 70
180 208 219 213 206 255 180 237 216 207 196 212 198 203 215 192 139 178 214 140 120 129 100 123 110 103 62 71 58 65 19 17 344 331 320 322 316 316 295 261 217 194 198 306 265 211 285 289 350 6 2 16 74 114
235 196 205 240 239 242 243 213 208 229 238 206 209 229 223 143 183 205 180 111 113 100 75 60 56 33 79 63 52 39 46 26 348 325 322 11 357 343 341 0 310 193 80 354 10 342 285 255 221 183 49 85 109 105
272 16 7 352 333 288 39 334 345 18 320 244 228 266 148 162 167 54 54 32 47 52 51 43 29 13 28 53 31 12 319 338 321 308 305 354 325 317 320 341 345 44 3 1 340 315 316 310 213 222 168 161 154 140
11 359 3 18 293 297 306 304 238 227 188 324 344 332 311 18 71 79 99 19 28 4 7 30 36 43 26 4 351 333 315 294 290 278 285 285 281 251 280 343 347 285 315 342 332 327 317 309 288 185 135 144 144 189
322 29 357 327 326 285 284 298 13 26 24 344 329 357 37 39 56 54 43 18 358 1 34 26 38 28 12 358 322 330 320 311 297 278 310 335 30 40 21 8 347 308 297 286 305 320 339 342 344 19 94 177 142 88
349 10 341 297 305 313 6 10 33 48 341 339 353 7 69 57 15 46 42 14 4 25 31 13 8 357 27 357 343 342 0 18 22 21 15 346 0 358 352 345 342 324 279 250 245 268 287 308 324 340 10 141 160 152
303 346 296 283 258 326 41 8 352 288 272 271 294 191 97 93 48 36 40 30 31 34 28 12 358 18 20 5 348 349 343 54 60 47 344 335 323 325 335 347 338 328 334 326 314 271 232 268 264 292 282 231 173 123
280 315 281 341 304 0 322 308 297 295 265 244 194 167 118 126 106 34 53 37 36 33 26 10 358 23 15 355 343 334 321 316 95 84 44 291 307 322 329 322 317 327 329 329 315 298 299 285 235 232 124 75 81 90
329 320 339 300 307 306 46 342 274 266 273 256 268 95 135 141 92 71 348 50 46 27 15 5 348 355 340 319 308 291 302 296 28 86 39 342 314 313 314 310 318 322 323 312 313 316 317 287 244 115 104 93 86 84
282 275 272 5 348 4 334 355 313 306 343 31 51 29 37 67 80 45 341 75 89 32 324 299 316 311 307 306 303 305 305 297 83 121 106 51 4 341 319 326 319 315 326 346 357 17 50 70 79 85 90 93 91 89